Weather History for KSLO - June, 2013

Change the Weather History Date:

Saturday, June 29, 2013

  Actual Average Record
Temperature  
Mean Temperature 73 °F -  
Max Temperature 81 °F 87 °F 100 °F (2012)
Min Temperature 66 °F 65 °F 54 °F (1958)
Cooling Degree Days 8    
Growing Degree Days 23 (Base 50)    
Moisture  
Dew Point 65 °F    
Average Humidity 80    
Maximum Humidity 100    
Minimum Humidity 57    
Precipitation  
Precipitation 0.11 in - - ()
Sea Level Pressure  
Sea Level Pressure 29.68 in    
Wind  
Wind Speed 6 mph (WNW)    
Max Wind Speed 29 mph    
Max Gust Speed 34 mph    
Visibility 10 miles    
Events Rain , Thunderstorm    
Averages and records for this station are not official NWS values.
T = Trace of Precipitation, MM = Missing Value Source: NWS Daily Summary

Daily Weather History Graph

Daily Weather History Graph

Search for Another Location

Airport or City:

Trip Planner

Search our weather history database for the weather conditions in past years. The results will help you decide how hot, cold, wet, or windy it might be!

Date:

Astronomy

Jun. 29, 2013 Rise Set
Actual Time 5:34 AM CDT 8:24 PM CDT
Civil Twilight 5:02 AM CDT 8:56 PM CDT
Nautical Twilight 4:22 AM CDT 9:36 PM CDT
Astronomical Twilight 3:36 AM CDT 10:21 PM CDT
Moon No Moon Rise 12:40 PM CDT
Length of Visible Light 15h 53m
Length of Day
14h 50m
Waning Gibbous, 55% of the Moon is Illuminated
Jun 29
Waning Gibbous
Jun 29
Last Quarter
Jul 8
New
Jul 15
First Quarter
Jul 22
Full

Hourly Weather History & Observations

Time (CDT) Temp. Heat Index Dew Point Humidity Pressure Visibility Wind Dir Wind Speed Gust Speed Precip Events Conditions
12:15 AM 69.4 °F - 63.5 °F 81% 29.69 in 10.0 mi West 4.6 mph - N/A   Scattered Clouds
12:35 AM 68.7 °F - 64.0 °F 85% 29.69 in 10.0 mi WSW 3.5 mph - N/A   Scattered Clouds
12:55 AM 68.2 °F - 63.9 °F 86% 29.69 in 10.0 mi WSW 5.8 mph - N/A   Clear
1:15 AM 67.8 °F - 64.0 °F 88% 29.69 in 10.0 mi WSW 3.5 mph - N/A   Scattered Clouds
1:35 AM 69.6 °F - 64.2 °F 83% 29.68 in 10.0 mi West 4.6 mph - N/A   Mostly Cloudy
1:55 AM 69.8 °F - 63.9 °F 81% 29.68 in 10.0 mi West 3.5 mph - N/A   Scattered Clouds
2:15 AM 68.2 °F - 64.0 °F 87% 29.68 in 10.0 mi WSW 3.5 mph - N/A   Scattered Clouds
2:35 AM 67.5 °F - 64.6 °F 90% 29.68 in 10.0 mi Calm Calm - N/A   Mostly Cloudy
2:55 AM 68.2 °F - 64.0 °F 87% 29.68 in 10.0 mi West 3.5 mph - N/A   Scattered Clouds
3:15 AM 69.1 °F - 64.2 °F 84% 29.68 in 10.0 mi West 4.6 mph - N/A   Mostly Cloudy
3:35 AM 68.9 °F - 63.9 °F 84% 29.67 in 10.0 mi West 4.6 mph - N/A   Scattered Clouds
3:55 AM 68.7 °F - 63.7 °F 84% 29.67 in 10.0 mi West 4.6 mph - N/A   Scattered Clouds
4:15 AM 68.0 °F - 63.7 °F 86% 29.67 in 10.0 mi West 4.6 mph - N/A   Clear
4:35 AM 67.5 °F - 63.7 °F 88% 29.67 in 10.0 mi West 4.6 mph - N/A   Clear
4:55 AM 68.0 °F - 63.5 °F 85% 29.68 in 10.0 mi West 4.6 mph - N/A   Clear
5:15 AM 66.7 °F - 63.3 °F 89% 29.68 in 10.0 mi WSW 3.5 mph - N/A   Clear
5:35 AM 66.2 °F - 63.1 °F 90% 29.68 in 10.0 mi West 4.6 mph - N/A   Clear
5:55 AM 66.4 °F - 63.1 °F 89% 29.68 in 10.0 mi WSW 3.5 mph - N/A   Clear
6:15 AM 67.5 °F - 63.1 °F 86% 29.68 in 10.0 mi West 4.6 mph - N/A   Clear
6:35 AM 68.4 °F - 63.5 °F 84% 29.68 in 10.0 mi West 5.8 mph - N/A   Clear
6:55 AM 69.4 °F - 63.7 °F 82% 29.68 in 10.0 mi West 5.8 mph - N/A   Clear
7:15 AM 70.7 °F - 64.0 °F 79% 29.68 in 10.0 mi West 6.9 mph - N/A   Clear
7:35 AM 71.8 °F - 62.8 °F 73% 29.69 in 10.0 mi WNW 10.4 mph - N/A   Clear
7:55 AM 72.9 °F - 63.0 °F 71% 29.69 in 10.0 mi WNW 8.1 mph - N/A   Clear
8:15 AM 73.6 °F - 63.5 °F 71% 29.68 in 10.0 mi WNW 5.8 mph - N/A   Clear
8:35 AM 74.5 °F - 63.7 °F 69% 29.68 in 10.0 mi WNW 10.4 mph 16.1 mph N/A   Clear
8:55 AM 75.0 °F - 63.3 °F 67% 29.68 in 10.0 mi WNW 11.5 mph 19.6 mph N/A   Clear
9:15 AM 75.4 °F - 64.0 °F 68% 29.68 in 10.0 mi WNW 9.2 mph - N/A   Clear
9:35 AM 75.7 °F - 63.7 °F 66% 29.68 in 10.0 mi WNW 10.4 mph 17.3 mph N/A   Clear
9:55 AM 76.6 °F - 64.0 °F 65% 29.67 in 10.0 mi WNW 11.5 mph - N/A   Clear
10:15 AM 77.4 °F - 64.4 °F 64% 29.67 in 10.0 mi West 8.1 mph - N/A   Scattered Clouds
10:35 AM 76.3 °F - 64.6 °F 67% 29.67 in 10.0 mi WNW 8.1 mph - N/A   Mostly Cloudy
10:55 AM 75.9 °F - 63.5 °F 65% 29.68 in 10.0 mi WNW 10.4 mph 17.3 mph N/A   Mostly Cloudy
11:15 AM 75.2 °F - 63.9 °F 68% 29.68 in 10.0 mi WNW 8.1 mph - N/A   Overcast
11:35 AM 75.6 °F - 64.6 °F 69% 29.67 in 10.0 mi NW 6.9 mph - N/A   Overcast
11:55 AM 75.6 °F - 64.4 °F 68% 29.67 in 10.0 mi WNW 10.4 mph - N/A   Overcast
12:15 PM 76.1 °F - 63.9 °F 66% 29.67 in 10.0 mi West 9.2 mph - N/A   Overcast
12:35 PM 77.9 °F - 64.9 °F 64% 29.67 in 10.0 mi WNW 8.1 mph - N/A   Mostly Cloudy
12:55 PM 77.5 °F - 64.6 °F 64% 29.67 in 10.0 mi West 9.2 mph - N/A   Mostly Cloudy
1:15 PM 79.0 °F - 64.8 °F 62% 29.66 in 10.0 mi WNW 12.7 mph 18.4 mph N/A   Mostly Cloudy
1:35 PM 78.6 °F - 64.0 °F 61% 29.66 in 10.0 mi WNW 9.2 mph 18.4 mph N/A   Mostly Cloudy
1:55 PM 78.8 °F - 65.1 °F 63% 29.65 in 10.0 mi West 6.9 mph - N/A   Mostly Cloudy
2:15 PM 78.6 °F - 63.9 °F 60% 29.65 in 10.0 mi WNW 9.2 mph - N/A   Scattered Clouds
2:35 PM 80.4 °F 82.0 °F 63.7 °F 57% 29.65 in 10.0 mi WNW 15.0 mph 23.0 mph N/A   Mostly Cloudy
2:55 PM 79.3 °F - 64.6 °F 60% 29.65 in 10.0 mi WNW 12.7 mph 18.4 mph N/A   Mostly Cloudy
3:15 PM 80.6 °F 82.4 °F 64.9 °F 59% 29.64 in 10.0 mi WNW 15.0 mph 18.4 mph N/A   Mostly Cloudy
3:35 PM 79.3 °F - 63.5 °F 58% 29.65 in 10.0 mi WNW 16.1 mph 23.0 mph N/A   Scattered Clouds
3:55 PM 76.1 °F - 65.7 °F 70% 29.66 in 10.0 mi NW 28.8 mph 34.5 mph N/A Thunderstorm Mostly Cloudy
4:15 PM 66.9 °F - 61.7 °F 83% 29.68 in 3.0 mi NW 16.1 mph 25.3 mph 0.11 in Rain , Thunderstorm Heavy Thunderstorms and Rain
4:35 PM 68.0 °F - 63.5 °F 85% 29.68 in 10.0 mi WNW 8.1 mph 16.1 mph 0.11 in Thunderstorm Drizzle
4:55 PM 68.4 °F - 64.4 °F 87% 29.68 in 10.0 mi WNW 8.1 mph - 0.11 in Rain , Thunderstorm Light Thunderstorms and Rain
5:15 PM 68.4 °F - 65.1 °F 89% 29.68 in 10.0 mi NW 6.9 mph - N/A Rain , Thunderstorm Thunderstorms and Rain
5:35 PM 68.4 °F - 65.8 °F 92% 29.68 in 10.0 mi NW 6.9 mph - N/A Rain Light Rain
5:55 PM 68.9 °F - 66.2 °F 91% 29.67 in 10.0 mi NW 5.8 mph - N/A Rain Light Rain
6:15 PM 69.8 °F - 65.7 °F 87% 29.66 in 10.0 mi NNW 8.1 mph - N/A   Scattered Clouds
6:35 PM 70.7 °F - 65.5 °F 83% 29.67 in 10.0 mi NW 6.9 mph - N/A   Clear
6:55 PM 70.5 °F - 65.5 °F 84% 29.68 in 10.0 mi West 5.8 mph - N/A   Clear
7:15 PM 70.9 °F - 66.0 °F 85% 29.69 in 10.0 mi West 4.6 mph - N/A   Clear
7:35 PM 70.7 °F - 66.2 °F 86% 29.68 in 10.0 mi West 3.5 mph - N/A   Clear
7:55 PM 70.0 °F - 65.8 °F 87% 29.68 in 10.0 mi NW 3.5 mph - N/A   Clear
8:15 PM 69.1 °F - 66.2 °F 91% 29.67 in 10.0 mi WNW 3.5 mph - N/A   Clear
8:35 PM 68.2 °F - 66.0 °F 93% 29.68 in 10.0 mi West 3.5 mph - N/A   Clear
8:55 PM 67.1 °F - 66.2 °F 97% 29.69 in 10.0 mi Calm Calm - N/A   Clear
9:15 PM 66.6 °F - 66.2 °F 99% 29.70 in 7.0 mi Calm Calm - N/A   Clear
9:35 PM 66.2 °F - 66.2 °F 100% 29.70 in 5.0 mi Calm Calm - N/A   Clear
9:55 PM 66.4 °F - 66.4 °F 100% 29.70 in 7.0 mi West 4.6 mph - N/A   Clear
10:15 PM 66.2 °F - 65.7 °F 98% 29.70 in 10.0 mi WSW 3.5 mph - N/A   Clear
10:35 PM 66.4 °F - 66.2 °F 99% 29.70 in 10.0 mi Calm Calm - N/A   Scattered Clouds
10:55 PM 66.9 °F - 66.6 °F 99% 29.71 in 10.0 mi WSW 3.5 mph - N/A   Mostly Cloudy
11:15 PM 66.7 °F - 66.6 °F 99% 29.71 in 10.0 mi West 3.5 mph - N/A   Scattered Clouds
11:35 PM 66.7 °F - 66.7 °F 100% 29.71 in 10.0 mi Calm Calm - N/A   Scattered Clouds
11:55 PM 67.1 °F - 67.1 °F 100% 29.71 in 10.0 mi NNW 4.6 mph - N/A   Mostly Cloudy